Gaylord, MI

2:09 AM EDT on September 20, 2017 (GMT -0400)
Otsego County

Weather History for KGLR - September, 2013

Change the Weather History Date:

Thursday, September 26, 2013

  Actual Average Record
Temperature  
Mean Temperature 53 °F -  
Max Temperature 75 °F 64 °F 80 °F (1973)
Min Temperature 33 °F 43 °F 25 °F (1955)
Degree Days  
Heating Degree Days 12    
Growing Degree Days 3 (Base 50)    
Moisture  
Dew Point 38 °F    
Average Humidity 73    
Maximum Humidity 100    
Minimum Humidity 23    
Precipitation  
Precipitation 0.00 in - - ()
Sea Level Pressure  
Sea Level Pressure 30.12 in    
Wind  
Wind Speed 1 mph (SSE)    
Max Wind Speed 9 mph    
Max Gust Speed -    
Visibility 8 miles    
Events Fog    
Averages and records for this station are not official NWS values.
T = Trace of Precipitation, MM = Missing Value Source: NWS Daily Summary

Daily Weather History Graph

Daily Weather History Graph

Search for Another Location

Airport or City:

Trip Planner

Search our weather history database for the weather conditions in past years. The results will help you decide how hot, cold, wet, or windy it might be!

Date:

Astronomy

Sep. 26, 2013 Rise Set
Actual Time 7:31 AM EDT 7:28 PM EDT
Civil Twilight 7:01 AM EDT 7:57 PM EDT
Nautical Twilight 6:27 AM EDT 8:31 PM EDT
Astronomical Twilight 5:52 AM EDT 9:06 PM EDT
Moon No Moon Rise 2:35 PM EDT (9/26)
Length of Visible Light 12h 55m
Length of Day
11h 57m
Waning Gibbous, 55% of the Moon is Illuminated
Sep 26
Waning Gibbous
Sep 26
Last Quarter
Oct 4
New
Oct 11
First Quarter
Oct 18
Full

Hourly Weather History & Observations

Time (EDT) Temp. Dew Point Humidity Pressure Visibility Wind Dir Wind Speed Gust Speed Precip Events Conditions
12:53 AM 41.0 °F 39.9 °F 96% 30.07 in 10.0 mi Calm Calm - N/A   Clear
1:53 AM 39.9 °F 37.9 °F 93% 30.07 in 10.0 mi Calm Calm - N/A   Clear
2:53 AM 39.9 °F 37.0 °F 89% 30.08 in 10.0 mi Calm Calm - N/A   Clear
3:53 AM 37.0 °F 35.1 °F 93% 30.08 in 10.0 mi Calm Calm - N/A   Clear
4:11 AM 39.2 °F 35.6 °F 87% 30.07 in 1.8 mi Calm Calm - N/A   Scattered Clouds
4:23 AM 39.2 °F 37.4 °F 93% 30.07 in 4.0 mi Calm Calm - N/A   Scattered Clouds
4:42 AM 39.2 °F 37.4 °F 93% 30.08 in 10.0 mi Calm Calm - N/A   Mostly Cloudy
4:51 AM 33.8 °F 33.8 °F 100% 30.08 in 10.0 mi Calm Calm - N/A   Partly Cloudy
4:53 AM 34.0 °F 33.1 °F 96% 30.10 in 10.0 mi Calm Calm - N/A   Partly Cloudy
5:53 AM 37.9 °F 35.1 °F 89% 30.12 in 9.0 mi Calm Calm - N/A   Scattered Clouds
6:01 AM 37.4 °F 37.4 °F 100% 30.11 in 6.0 mi Calm Calm - N/A   Mostly Cloudy
6:26 AM 35.6 °F 33.8 °F 93% 30.11 in 1.5 mi Calm Calm - N/A   Mostly Cloudy
6:33 AM 35.6 °F 33.8 °F 93% 30.11 in 0.2 mi Calm Calm - N/A Fog Fog
6:43 AM 35.6 °F 35.6 °F 100% 30.11 in 0.8 mi Calm Calm - N/A   Mist
6:48 AM 35.6 °F 35.6 °F 100% 30.11 in 1.5 mi Calm Calm - N/A   Scattered Clouds
6:53 AM 35.1 °F 34.0 °F 96% 30.14 in 4.0 mi Calm Calm - N/A   Scattered Clouds
7:53 AM 35.1 °F 32.0 °F 89% 30.15 in 10.0 mi Calm Calm - N/A   Clear
8:53 AM 43.0 °F 39.9 °F 89% 30.15 in 10.0 mi Calm Calm - N/A   Clear
9:53 AM 50.0 °F 44.1 °F 80% 30.17 in 10.0 mi Calm Calm - N/A   Clear
10:53 AM 59.0 °F 46.0 °F 62% 30.16 in 10.0 mi Variable 3.5 mph - N/A   Clear
11:53 AM 63.0 °F 43.0 °F 48% 30.14 in 10.0 mi SE 5.8 mph - N/A   Clear
12:53 PM 66.9 °F 41.0 °F 39% 30.14 in 10.0 mi Variable 3.5 mph - N/A   Clear
1:53 PM 71.1 °F 39.0 °F 31% 30.14 in 10.0 mi Calm Calm - N/A   Clear
2:53 PM 72.0 °F 37.9 °F 29% 30.13 in 10.0 mi Variable 3.5 mph - N/A   Clear
3:53 PM 73.9 °F 37.9 °F 27% 30.12 in 10.0 mi South 9.2 mph - N/A   Clear
4:53 PM 73.9 °F 37.0 °F 26% 30.13 in 10.0 mi Calm Calm - N/A   Clear
5:53 PM 73.9 °F 34.0 °F 23% 30.13 in 10.0 mi South 5.8 mph - N/A   Clear
6:53 PM 71.1 °F 36.0 °F 28% 30.14 in 10.0 mi Calm Calm - N/A   Clear
7:53 PM 62.1 °F 42.1 °F 48% 30.16 in 10.0 mi Calm Calm - N/A   Clear
8:53 PM 57.0 °F 46.0 °F 67% 30.17 in 10.0 mi Calm Calm - N/A   Clear
9:53 PM 57.0 °F 48.0 °F 72% 30.17 in 10.0 mi SE 6.9 mph - N/A   Clear
10:53 PM 55.0 °F 46.9 °F 74% 30.17 in 10.0 mi SE 6.9 mph - N/A   Clear
11:53 PM 53.1 °F 46.0 °F 77% 30.17 in 10.0 mi Calm Calm - N/A   Clear